K2MST Weather Reports


time (UTC)temp
C
wind
direction
speed
KPH
gust
KPH
rain 1hr
cm
rain 24hr
cm
rain mn
cm
humidity
%
barometer
mb
20260510035540 11 180 9.7 19.3 0.28 0.43 0.43 86 1005.6
20260510034519 11 180 6.4 16.1 0.23 0.36 0.36 86 1005.8
20260510033519 12 225 3.2 8.0 0.20 0.30 0.30 85 1005.9
20260510032518 12 180 4.8 14.5 0.23 0.23 0.23 85 1005.9
20260510031518 12 180 4.8 11.3 0.20 0.20 0.20 84 1006.0
20260510030519 12 225 4.8 8.0 0.18 0.18 0.18 83 1006.2
20260510025518 12 248 4.8 9.7 0.15 0.15 0.15 82 1006.3
20260510024518 13 270 8.0 19.3 0.13 0.13 0.13 80 1006.3
20260510023518 13 270 11.3 19.3 0.10 0.10 0.10 77 1006.5
20260510023018 15 270 17.7 29.0 0.08 0.08 0.08 74 1006.4
20260510022018 14 203 12.9 24.1 0.00 0.00 0.00 76 1005.2
20260510021018 14 180 11.3 24.1 0.00 0.00 0.00 76 1004.4
20260510020038 14 203 9.7 17.7 0.00 0.00 0.00 76 1004.1
20260510015038 14 180 11.3 20.9 0.00 0.00 0.00 76 1003.9
20260510014018 14 158 11.3 20.9 0.00 0.00 0.00 75 1003.9
20260510013019 14 158 8.0 16.1 0.00 0.00 0.00 75 1003.9
20260510012018 14 158 9.7 17.7 0.00 0.00 0.00 75 1004.0
20260510011018 14 158 12.9 22.5 0.00 0.00 0.00 75 1003.6
20260510010018 14 180 11.3 22.5 0.00 0.00 0.00 74 1003.6
20260510005018 14 158 16.1 22.5 0.00 0.00 0.00 74 1003.3
20260510004018 14 180 16.1 24.1 0.00 0.00 0.00 74 1003.4
20260510003018 14 180 12.9 20.9 0.00 0.00 0.00 74 1003.4
20260510002018 15 180 11.3 24.1 0.00 0.00 0.00 73 1003.3
20260510001018 15 180 9.7 20.9 0.00 0.00 0.00 73 1003.3
20260510000018 15 180 9.7 17.7 0.00 0.00 0.00 71 1003.3
20260509235038 15 158 8.0 17.7 0.00 0.00 0.00 70 1003.3
20260509234018 16 158 9.7 16.1 0.00 0.00 0.00 69 1003.2
20260509233018 16 158 8.0 16.1 0.00 0.00 0.00 68 1003.4
20260509232018 16 180 9.7 19.3 0.00 0.00 0.00 68 1003.2
20260509231017 16 180 8.0 25.7 0.00 0.00 0.00 67 1003.1
20260509230038 17 180 14.5 22.5 0.00 0.00 0.00 65 1003.1
20260509225037 17 180 11.3 24.1 0.00 0.00 0.00 65 1003.2
20260509224018 17 180 9.7 20.9 0.00 0.00 0.00 66 1003.3
20260509223017 17 180 12.9 24.1 0.00 0.00 0.00 65 1003.1
20260509222017 17 180 12.9 24.1 0.00 0.00 0.00 66 1003.3
20260509221017 16 180 11.3 22.5 0.00 0.00 0.00 66 1003.3
20260509220017 16 180 14.5 22.5 0.00 0.00 0.00 67 1003.4
20260509215017 17 180 14.5 29.0 0.00 0.00 0.00 65 1003.4
20260509214017 17 180 16.1 29.0 0.00 0.00 0.00 63 1003.4
20260509213017 17 158 14.5 29.0 0.00 0.00 0.00 64 1003.4
20260509212037 16 158 12.9 25.7 0.00 0.00 0.00 66 1003.4
20260509211017 17 158 19.3 35.4 0.00 0.00 0.00 65 1003.6
20260509210017 16 180 19.3 33.8 0.00 0.00 0.00 65 1003.6
20260509205057 16 180 19.3 33.8 0.00 0.00 0.00 65 1003.6
20260509204017 17 180 17.7 30.6 0.00 0.00 0.00 63 1003.7
20260509203017 17 203 14.5 33.8 0.00 0.00 0.00 62 1003.9
20260509202017 17 203 24.1 37.0 0.00 0.00 0.00 63 1003.8
20260509201057 17 203 17.7 35.4 0.00 0.00 0.00 63 1003.9
20260509200017 17 158 16.1 30.6 0.00 0.00 0.00 63 1003.9
20260509195017 16 180 19.3 29.0 0.00 0.00 0.00 66 1004.0
20260509194019 16 158 14.5 24.1 0.00 0.00 0.00 66 1004.3
20260509193018 16 180 19.3 30.6 0.00 0.00 0.00 66 1004.5
20260509192019 17 180 12.9 20.9 0.00 0.00 0.00 64 1004.5
20260509191018 17 180 9.7 20.9 0.00 0.00 0.00 63 1004.6
20260509190019 17 180 14.5 27.4 0.00 0.00 0.00 63 1004.7
20260509185019 16 203 16.1 32.2 0.00 0.00 0.00 64 1004.9
20260509184019 17 203 11.3 19.3 0.00 0.00 0.00 65 1004.9
20260509183039 16 180 8.0 19.3 0.00 0.00 0.00 66 1005.1
20260509182018 15 180 12.9 22.5 0.00 0.00 0.00 68 1005.2
20260509181018 15 180 9.7 22.5 0.00 0.00 0.00 70 1005.3
20260509180018 15 203 11.3 20.9 0.00 0.00 0.00 70 1005.3
20260509175039 14 180 11.3 20.9 0.00 0.00 0.00 71 1005.3
20260509174018 14 180 8.0 19.3 0.00 0.00 0.00 72 1005.2
20260509173019 14 158 11.3 16.1 0.00 0.00 0.00 72 1005.3
20260509172018 13 158 8.0 17.7 0.00 0.00 0.00 74 1005.4
20260509171018 13 158 4.8 12.9 0.00 0.00 0.00 75 1005.5
20260509170018 13 135 4.8 17.7 0.00 0.00 0.00 76 1005.6
20260509165038 12 90 8.0 17.7 0.00 0.00 0.00 77 1005.5
20260509164018 12 68 8.0 19.3 0.00 0.00 0.00 76 1005.7
20260509163018 12 68 6.4 11.3 0.00 0.00 0.00 76 1006.0
20260509162018 12 158 4.8 9.7 0.00 0.00 0.00 76 1006.2
20260509161018 12 158 8.0 14.5 0.00 0.00 0.00 78 1006.3
20260509160018 12 180 6.4 14.5 0.00 0.00 0.00 78 1006.3
20260509155018 12 180 6.4 12.9 0.00 0.00 0.00 78 1006.4
20260509154018 12 180 8.0 17.7 0.00 0.00 0.00 77 1006.5
20260509153038 12 158 3.2 9.7 0.00 0.00 0.00 77 1006.6
20260509152018 12 68 4.8 9.7 0.00 0.00 0.00 75 1006.6
20260509151038 12 68 4.8 11.3 0.00 0.00 0.00 76 1006.8
20260509150018 12 68 6.4 11.3 0.00 0.00 0.00 74 1006.8
20260509145018 11 68 3.2 9.7 0.00 0.00 0.00 75 1006.8
20260509144018 11 68 6.4 12.9 0.00 0.03 0.00 75 1007.0
20260509143018 11 68 1.6 4.8 0.00 0.05 0.00 75 1007.0
20260509142017 11 68 4.8 11.3 0.00 0.05 0.00 75 1007.1
20260509141017 10 68 8.0 16.1 0.00 0.08 0.00 75 1007.0
20260509140038 10 68 4.8 9.7 0.00 0.08 0.00 75 1007.0
20260509135017 10 68 6.4 16.1 0.00 0.08 0.00 75 1007.3
20260509134017 10 90 4.8 11.3 0.00 0.08 0.00 75 1007.4
20260509133017 10 68 4.8 9.7 0.00 0.10 0.00 74 1007.4
20260509132017 10 68 1.6 6.4 0.00 0.10 0.00 75 1007.4
20260509131017 9 68 1.6 6.4 0.00 0.10 0.00 75 1007.6
20260509130017 9 90 4.8 8.0 0.00 0.10 0.00 74 1007.4
20260509125017 9 45 4.8 9.7 0.00 0.10 0.00 75 1007.2
20260509124037 8 68 3.2 9.7 0.00 0.10 0.00 76 1007.3
20260509123017 8 68 4.8 9.7 0.00 0.10 0.00 74 1007.3
20260509122017 8 90 1.6 6.4 0.00 0.10 0.00 73 1007.5
20260509121017 8 0.0 1.6 0.00 0.10 0.00 74 1007.7
20260509120017 8 0.0 0.0 0.00 0.10 0.00 73 1007.5
20260509115017 8 0.0 0.0 0.00 0.10 0.00 73 1007.7
20260509114017 7 0.0 1.6 0.00 0.10 0.00 73 1007.8
20260509113017 7 0.0 1.6 0.00 0.10 0.00 73 1007.8
20260509112017 7 0.0 4.8 0.00 0.10 0.00 73 1007.8
20260509111017 7 90 1.6 8.0 0.00 0.10 0.00 73 1007.8
20260509110017 7 90 1.6 4.8 0.00 0.10 0.00 72 1007.9
20260509105017 7 90 3.2 9.7 0.00 0.10 0.00 72 1007.8
20260509104017 7 68 3.2 8.0 0.00 0.10 0.00 72 1007.9
20260509103037 6 68 1.6 8.0 0.00 0.10 0.00 74 1007.8
20260509102017 6 0.0 0.0 0.00 0.10 0.00 78 1007.9
20260509101019 5 0.0 0.0 0.00 0.10 0.00 79 1007.7
20260509100018 5 0.0 1.6 0.00 0.10 0.00 78 1007.5
20260509095019 6 0.0 1.6 0.00 0.10 0.00 77 1007.5
20260509094020 6 0.0 0.0 0.00 0.10 0.00 76 1007.4
20260509093019 5 0.0 0.0 0.00 0.10 0.00 77 1007.4
20260509092019 5 0.0 0.0 0.00 0.10 0.00 78 1007.5
20260509091019 5 0.0 0.0 0.00 0.10 0.00 80 1007.6
20260509090018 5 0.0 0.0 0.00 0.10 0.00 80 1007.7
20260509085020 5 0.0 0.0 0.00 0.10 0.00 80 1008.0
20260509084019 5 0.0 1.6 0.00 0.10 0.00 80 1008.1
20260509083041 5 0.0 0.0 0.00 0.10 0.00 79 1008.1
20260509082059 5 0.0 0.0 0.00 0.10 0.00 78 1008.2
20260509081018 5 0.0 0.0 0.00 0.10 0.00 76 1008.2
20260509080018 6 0.0 0.0 0.00 0.10 0.00 76 1008.2
20260509075018 5 0.0 0.0 0.00 0.10 0.00 78 1008.3
20260509074018 5 0.0 0.0 0.00 0.10 0.00 78 1008.5
20260509073018 5 0.0 0.0 0.00 0.10 0.00 78 1008.5
20260509072018 5 0.0 0.0 0.00 0.10 0.00 76 1008.3
20260509071018 6 0.0 0.0 0.00 0.10 0.00 75 1008.3
20260509070018 6 0.0 0.0 0.00 0.10 0.00 75 1008.3
20260509065058 5 0.0 0.0 0.00 0.13 0.00 75 1008.4
20260509064020 6 0.0 0.0 0.00 0.13 0.00 75 1008.5
20260509063018 6 0.0 0.0 0.00 0.13 0.00 74 1008.6
20260509062018 6 0.0 0.0 0.00 0.18 0.00 73 1008.7
20260509061018 6 180 1.6 4.8 0.00 0.18 0.00 73 1008.8
20260509060018 6 158 1.6 3.2 0.00 0.18 0.00 72 1009.0
20260509055018 6 180 1.6 4.8 0.00 0.18 0.00 72 1009.2
20260509054058 6 180 3.2 6.4 0.00 0.18 0.00 72 1009.2
20260509053017 6 180 3.2 4.8 0.00 0.18 0.00 73 1009.3
20260509052018 6 180 3.2 4.8 0.00 0.18 0.00 74 1009.4
20260509051018 6 180 3.2 4.8 0.00 0.18 0.00 74 1009.4
20260509050018 6 180 3.2 4.8 0.00 0.18 0.00 73 1009.6
20260509045019 6 180 1.6 4.8 0.00 0.18 0.00 73 1009.6
20260509044038 5 180 1.6 3.2 0.00 0.18 0.00 75 1009.7
20260509043038 5 0.0 3.2 0.00 0.18 0.00 76 1009.7
20260509042018 5 158 3.2 6.4 0.00 0.18 0.00 76 1009.8
20260509041017 5 158 3.2 6.4 0.00 0.18 0.00 75 1009.8
20260509040018 5 180 3.2 4.8 0.00 0.18 0.18 75 1009.7